Weather History for KSNT - June, 2013

Change the Weather History Date:

Monday, June 17, 2013

  Actual Average Record
Temperature  
Mean Temperature 54 °F 50 °F  
Max Temperature 78 °F 67 °F 84 °F (2002)
Min Temperature 29 °F 33 °F 22 °F (1994)
Degree Days  
Heating Degree Days 11 15  
Month to date heating degree days 227 283  
Since 1 June heating degree days 227 283  
Since 1 July heating degree days 10088 10625  
Cooling Degree Days 0 0  
Month to date cooling degree days 0 0  
Year to date cooling degree days 0 0  
Since 1 June cooling degree days 0 0  
Growing Degree Days 2 (Base 50)    
Moisture  
Dew Point 27 °F    
Average Humidity 52    
Maximum Humidity 92    
Minimum Humidity 11    
Precipitation  
Precipitation 0.00 in 0.04 in 0.53 in (1973)
Month to date precipitation 0.15 0.86  
Year to date precipitation 5.04 9.39  
Sea Level Pressure  
Sea Level Pressure 29.92 in    
Wind  
Wind Speed 4 mph (South)    
Max Wind Speed 17 mph    
Max Gust Speed 23 mph    
T = Trace of Precipitation, MM = Missing Value Source: NWS Daily Summary

Daily Weather History Graph

Daily Weather History Graph

Search for Another Location

Airport or City:

Trip Planner

Search our weather history database for the weather conditions in past years. The results will help you decide how hot, cold, wet, or windy it might be!

Date:

Astronomy

Jun. 17, 2013 Rise Set
Actual Time 5:55 AM MDT 9:25 PM MDT
Civil Twilight 5:19 AM MDT 10:02 PM MDT
Nautical Twilight 4:31 AM MDT 10:50 PM MDT
Astronomical Twilight 3:29 AM MDT 11:52 PM MDT
Moon 2:58 PM MDT (6/17) 1:45 AM MDT (6/17)
Length of Visible Light 16h 43m
Length of Day
15h 30m
First Quarter, 61% of the Moon is Illuminated
Jun 17
First Quarter
Jun 23
Full
Jun 29
Last Quarter
Jul 8
New
Jul 15
First Quarter

Hourly Weather History & Observations

Time (MDT) Temp. Windchill Dew Point Humidity Pressure Visibility Wind Dir Wind Speed Gust Speed Precip Events Conditions
12:51 AM 44.1 °F - 30.0 °F 58% 29.94 in - Calm Calm - N/A   Unknown
1:51 AM 41.0 °F 39.0 °F 28.9 °F 62% 29.95 in - South 3.5 mph - N/A   Unknown
2:51 AM 39.9 °F 36.7 °F 28.9 °F 65% 29.95 in - South 4.6 mph - N/A   Unknown
3:51 AM 33.1 °F 28.7 °F 27.0 °F 78% 29.99 in - South 4.6 mph - N/A   Unknown
4:51 AM 34.0 °F - 28.0 °F 79% 30.01 in - Calm Calm - N/A   Unknown
5:51 AM 30.0 °F - 27.0 °F 88% 30.03 in - Calm Calm - N/A   Unknown
6:51 AM 30.9 °F - 28.0 °F 89% 30.04 in - Calm Calm - N/A   Unknown
7:51 AM 41.0 °F 37.1 °F 30.0 °F 65% 30.01 in - East 5.8 mph - N/A   Unknown
8:51 AM 48.0 °F - 32.0 °F 54% 29.98 in - Calm Calm - N/A   Unknown
9:51 AM 55.9 °F - 32.0 °F 40% 29.99 in - Variable 3.5 mph - N/A   Unknown
10:51 AM 64.9 °F - 35.1 °F 33% 29.94 in - Calm Calm - N/A   Unknown
11:51 AM 72.0 °F - 24.1 °F 17% 29.89 in - Variable 3.5 mph - N/A   Unknown
12:51 PM 73.9 °F - 25.0 °F 16% 29.89 in - SW 4.6 mph - N/A   Unknown
1:51 PM 75.0 °F - 25.0 °F 16% 29.88 in - SW 8.1 mph - N/A   Unknown
2:51 PM 75.9 °F - 25.0 °F 15% 29.87 in - South 10.4 mph 17.3 mph N/A   Unknown
3:51 PM 75.9 °F - 24.1 °F 15% 29.88 in - SW 8.1 mph 16.1 mph N/A   Unknown
4:51 PM 75.9 °F - 25.0 °F 15% 29.86 in - South 8.1 mph - N/A   Unknown
5:51 PM 75.9 °F - 19.9 °F 12% 29.88 in - South 11.5 mph 19.6 mph N/A   Unknown
6:51 PM 75.0 °F - 18.0 °F 12% 29.88 in - Calm Calm - N/A   Unknown
7:51 PM 73.0 °F - 18.0 °F 12% 29.83 in - WNW 5.8 mph - N/A   Unknown
8:51 PM 64.9 °F - 28.9 °F 26% 29.83 in - Calm Calm - N/A   Unknown
9:51 PM 52.0 °F - 28.0 °F 40% 29.86 in - South 3.5 mph - N/A   Unknown
10:51 PM 46.9 °F - 28.0 °F 48% 29.85 in - ESE 3.5 mph - N/A   Unknown
11:51 PM 46.9 °F - 28.0 °F 48% 29.81 in - Calm Calm - N/A   Unknown